Simultaneous Nadir Overpasses (SNOs) Predictions

Prediction of SNOs between TERRA and METOP-C Satellite Orbit:

Table of predicted SNOs for the next 14.0 days since TLE Epoch: 1/29/2022
Index Date (TERRA) Time (TERRA) Lat,Lon (TERRA) SZA (TERRA ) Date (METOP-C) Time (METOP-C) Lat,Lon (METOP-C) SZA (METOP-C ) Distance(km) Time Diff (sec)
1 01/31/2022 15:49:53 -81.20, 165.38 79.64 01/31/2022 15:48:47 -81.20, 165.32 79.68 1.17 66
2 01/31/2022 16:39:19 81.21, -26.92 100.36 01/31/2022 16:39:26 81.21, -26.81 100.38 1.81 7
3 02/03/2022 11:24:04 -81.21,-128.10 80.45 02/03/2022 11:23:09 -81.21,-128.05 80.47 1.05 55
4 02/03/2022 12:13:30 81.21, 39.58 99.55 02/03/2022 12:13:48 81.22, 39.74 99.58 2.78 18
5 02/06/2022 06:58:15 -81.19, -62.00 81.35 02/06/2022 06:57:31 -81.20, -61.82 81.34 3.24 44
6 02/06/2022 07:47:40 81.21, 106.02 98.70 02/06/2022 07:48:10 81.21, 105.89 98.70 2.32 30
7 02/09/2022 02:32:25 -81.21, 4.78 82.19 02/09/2022 02:31:53 -81.20, 4.75 82.21 0.80 32
8 02/09/2022 03:21:51 81.21, 172.41 97.80 02/09/2022 03:22:32 81.21, 172.39 97.82 0.43 41
9 02/11/2022 22:06:36 -81.21, 71.14 83.12 02/11/2022 22:06:15 -81.21, 71.30 83.11 2.80 21



Historial Predications of SNOs between TERRA and METOP-C
